When you browse on this site, cookies collect data to enhance your experience and personalize the content and advertising you see.
Visit our Privacy Policy to learn more. By continuing to use the site, you agree to this use of cookies and data.
  • In Hungary
  • List of Countries
  • For 7 days
  • Water Temperature
  • Weather Map
  • News
  • Weather Widgets
  • user-avatar
    Login

    Hourly Weather Klimantino

    Today, 26 January, Sunday

    Time Temperature Precipitation Wind Pressure Humidity
    00:00 -6°C° 0 mm 6 mps 732 mmHg 86%
    01:00 -6°C° 0 mm 6 mps 733 mmHg 86%
    02:00 -6°C° 0 mm 6 mps 733 mmHg 87%
    03:00 -6°C° 0 mm 6 mps 734 mmHg 86%
    04:00 -6°C° 0 mm 6 mps 735 mmHg 84%
    05:00 -6°C° 0 mm 6 mps 735 mmHg 83%
    06:00 -7°C° 0 mm 5 mps 736 mmHg 84%
    07:00 -7°C° 0 mm 5 mps 736 mmHg 86%
    08:00 -8°C° 0 mm 4 mps 737 mmHg 87%
    09:00 -7°C° 0 mm 4 mps 737 mmHg 86%
    10:00 -7°C° 0 mm 4 mps 737 mmHg 86%
    11:00 -5°C° 0 mm 4 mps 738 mmHg 85%
    12:00 -5°C° 0 mm 4 mps 737 mmHg 85%
    13:00 -4°C° 0 mm 4 mps 737 mmHg 85%
    14:00 -4°C° 0 mm 4 mps 736 mmHg 84%
    15:00 -5°C° 0.4 mm 5 mps 735 mmHg 88%
    16:00 -5°C° 0.4 mm 6 mps 735 mmHg 91%
    17:00 -5°C° 0.4 mm 6 mps 734 mmHg 94%
    18:00 -4°C° 0.5 mm 6 mps 733 mmHg 95%
    19:00 -3°C° 0.5 mm 7 mps 733 mmHg 96%
    20:00 -2°C° 0.5 mm 7 mps 732 mmHg 97%
    21:00 -1°C° 0.4 mm 6 mps 732 mmHg 96%
    22:00 -1°C° 0.4 mm 6 mps 732 mmHg 96%
    23:00 -1°C° 0.4 mm 6 mps 733 mmHg 96%

    Tomorrow, 27 January, Monday

    Time Temperature Precipitation Wind Pressure Humidity
    00:00 -1°C° 0.1 mm 5 mps 734 mmHg 94%
    01:00 -2°C° 0.1 mm 5 mps 734 mmHg 92%
    02:00 -3°C° 0.1 mm 4 mps 735 mmHg 90%
    03:00 -4°C° 0 mm 4 mps 736 mmHg 91%
    04:00 -5°C° 0 mm 3 mps 737 mmHg 92%
    05:00 -7°C° 0 mm 3 mps 738 mmHg 93%
    06:00 -7°C° 0 mm 3 mps 739 mmHg 93%
    07:00 -7°C° 0 mm 2 mps 739 mmHg 92%
    08:00 -7°C° 0 mm 2 mps 740 mmHg 92%
    09:00 -7°C° 0 mm 2 mps 741 mmHg 88%
    10:00 -7°C° 0 mm 2 mps 741 mmHg 85%
    11:00 -6°C° 0 mm 1 mps 742 mmHg 81%
    12:00 -6°C° 0 mm 2 mps 742 mmHg 80%
    13:00 -6°C° 0 mm 2 mps 742 mmHg 79%
    14:00 -6°C° 0 mm 2 mps 742 mmHg 77%
    15:00 -6°C° 0 mm 2 mps 742 mmHg 78%
    16:00 -7°C° 0 mm 3 mps 742 mmHg 78%
    17:00 -7°C° 0 mm 3 mps 742 mmHg 78%
    18:00 -7°C° 0.1 mm 3 mps 742 mmHg 80%
    19:00 -8°C° 0.1 mm 4 mps 742 mmHg 82%
    20:00 -8°C° 0.1 mm 4 mps 742 mmHg 84%
    21:00 -9°C° 0.4 mm 4 mps 741 mmHg 87%
    22:00 -10°C° 0.4 mm 5 mps 741 mmHg 90%
    23:00 -10°C° 0.4 mm 5 mps 741 mmHg 92%

    Day after tomorrow, 28 January, Tuesday

    Time Temperature Precipitation Wind Pressure Humidity
    00:00 -10°C° 0.4 mm 5 mps 740 mmHg 93%
    01:00 -10°C° 0.4 mm 5 mps 740 mmHg 93%
    02:00 -8°C° 0.4 mm 4 mps 739 mmHg 94%
    03:00 -8°C° 0.4 mm 4 mps 739 mmHg 94%
    04:00 -8°C° 0.4 mm 4 mps 739 mmHg 95%
    05:00 -7°C° 0.4 mm 3 mps 739 mmHg 95%
    06:00 -6°C° 0.3 mm 3 mps 738 mmHg 95%
    07:00 -6°C° 0.3 mm 3 mps 738 mmHg 96%
    08:00 -6°C° 0.3 mm 3 mps 738 mmHg 96%
    09:00 -4°C° 0.2 mm 2 mps 738 mmHg 96%
    10:00 -4°C° 0.2 mm 2 mps 738 mmHg 96%
    11:00 -3°C° 0.2 mm 2 mps 738 mmHg 96%
    12:00 -3°C° 0.2 mm 2 mps 738 mmHg 97%
    13:00 -2°C° 0.2 mm 2 mps 738 mmHg 97%
    14:00 0°C° 0.2 mm 1 mps 737 mmHg 98%
    15:00 0°C° 0.1 mm 1 mps 737 mmHg 98%
    16:00 0°C° 0.1 mm 1 mps 737 mmHg 98%
    17:00 0°C° 0.1 mm 1 mps 737 mmHg 98%
    18:00 0°C° 0 mm 1 mps 738 mmHg 98%
    19:00 0°C° 0 mm 1 mps 738 mmHg 98%
    20:00 0°C° 0 mm 1 mps 738 mmHg 98%
    21:00 0°C° 0 mm 1 mps 738 mmHg 98%
    22:00 -2°C° 0 mm 2 mps 738 mmHg 98%
    23:00 -2°C° 0 mm 2 mps 738 mmHg 98%

    29 January, Wednesday

    Time Temperature Precipitation Wind Pressure Humidity
    00:00 -2°C° 0 mm 2 mps 738 mmHg 97%
    01:00 -2°C° 0 mm 2 mps 738 mmHg 97%
    02:00 -2°C° 0 mm 2 mps 738 mmHg 96%
    03:00 -3°C° 0 mm 2 mps 738 mmHg 96%
    04:00 -3°C° 0 mm 2 mps 738 mmHg 96%
    05:00 -3°C° 0 mm 2 mps 737 mmHg 96%
    06:00 -3°C° 0 mm 2 mps 737 mmHg 95%
    07:00 -3°C° 0 mm 2 mps 737 mmHg 95%
    08:00 -3°C° 0 mm 2 mps 738 mmHg 95%
    09:00 -4°C° 0 mm 3 mps 738 mmHg 94%
    10:00 -2°C° 0 mm 3 mps 738 mmHg 94%
    11:00 -1°C° 0 mm 3 mps 738 mmHg 93%
    12:00 -1°C° 0 mm 3 mps 738 mmHg 94%
    13:00 -1°C° 0 mm 3 mps 737 mmHg 94%
    14:00 -1°C° 0 mm 3 mps 737 mmHg 95%
    15:00 -1°C° 0 mm 3 mps 737 mmHg 95%
    16:00 -1°C° 0 mm 3 mps 737 mmHg 96%
    17:00 -2°C° 0 mm 4 mps 737 mmHg 96%
    18:00 -2°C° 0 mm 4 mps 737 mmHg 96%
    19:00 -1°C° 0 mm 3 mps 737 mmHg 96%
    20:00 -1°C° 0 mm 3 mps 737 mmHg 96%
    21:00 -2°C° 0 mm 4 mps 736 mmHg 96%
    22:00 -2°C° 0 mm 4 mps 736 mmHg 95%
    23:00 -2°C° 0 mm 4 mps 736 mmHg 95%

    30 January, Thursday

    Time Temperature Precipitation Wind Pressure Humidity
    00:00 -2°C° 0 mm 4 mps 735 mmHg 95%
    01:00 -2°C° 0 mm 5 mps 735 mmHg 96%
    02:00 -2°C° 0 mm 5 mps 735 mmHg 96%
    03:00 -2°C° 0.1 mm 5 mps 734 mmHg 96%
    04:00 -3°C° 0.1 mm 6 mps 734 mmHg 97%
    05:00 -2°C° 0.1 mm 6 mps 734 mmHg 97%
    06:00 -3°C° 0.2 mm 6 mps 733 mmHg 97%
    07:00 -3°C° 0.2 mm 6 mps 733 mmHg 97%
    08:00 -2°C° 0.2 mm 5 mps 733 mmHg 97%
    09:00 -2°C° 0.1 mm 5 mps 732 mmHg 96%
    10:00 -2°C° 0.1 mm 5 mps 732 mmHg 96%
    11:00 -2°C° 0.1 mm 5 mps 732 mmHg 95%
    12:00 -2°C° 0.4 mm 5 mps 731 mmHg 96%
    13:00 -2°C° 0.4 mm 5 mps 731 mmHg 96%
    14:00 -2°C° 0.4 mm 5 mps 731 mmHg 97%
    15:00 -2°C° 0.7 mm 5 mps 731 mmHg 97%
    16:00 -4°C° 0.7 mm 5 mps 731 mmHg 97%
    17:00 -4°C° 0.7 mm 5 mps 730 mmHg 97%
    18:00 -4°C° 0.6 mm 5 mps 730 mmHg 97%
    19:00 -4°C° 0.6 mm 5 mps 731 mmHg 97%
    20:00 -2°C° 0.6 mm 5 mps 731 mmHg 96%
    21:00 -4°C° 0.1 mm 5 mps 731 mmHg 95%
    22:00 -3°C° 0.1 mm 4 mps 731 mmHg 94%
    23:00 -3°C° 0.1 mm 4 mps 731 mmHg 94%

    31 January, Friday

    Time Temperature Precipitation Wind Pressure Humidity
    00:00 -3°C° 0.1 mm 4 mps 731 mmHg 94%
    01:00 -4°C° 0.1 mm 4 mps 731 mmHg 95%
    02:00 -4°C° 0.1 mm 4 mps 731 mmHg 96%
    03:00 -4°C° 0.2 mm 4 mps 731 mmHg 96%
    04:00 -4°C° 0.2 mm 4 mps 731 mmHg 96%
    05:00 -3°C° 0.2 mm 4 mps 731 mmHg 97%
    06:00 -3°C° 0.3 mm 4 mps 731 mmHg 97%
    07:00 -3°C° 0.3 mm 4 mps 731 mmHg 97%
    08:00 -4°C° 0.3 mm 4 mps 731 mmHg 96%
    09:00 -3°C° 0.3 mm 4 mps 731 mmHg 96%
    10:00 -2°C° 0.3 mm 3 mps 732 mmHg 96%
    11:00 -2°C° 0.3 mm 3 mps 732 mmHg 96%
    12:00 -2°C° 0.2 mm 3 mps 732 mmHg 96%
    13:00 -2°C° 0.2 mm 3 mps 732 mmHg 96%
    14:00 -2°C° 0.2 mm 2 mps 732 mmHg 96%
    15:00 -2°C° 0.1 mm 2 mps 732 mmHg 96%
    16:00 -2°C° 0.1 mm 2 mps 733 mmHg 97%
    17:00 -1°C° 0.1 mm 1 mps 733 mmHg 97%
    18:00 -1°C° 0 mm 1 mps 733 mmHg 97%
    19:00 -2°C° 0 mm 1 mps 734 mmHg 97%
    20:00 -2°C° 0 mm 1 mps 734 mmHg 97%
    21:00 -3°C° 0 mm 1 mps 734 mmHg 97%
    22:00 -3°C° 0 mm 1 mps 735 mmHg 96%
    23:00 -3°C° 0 mm 1 mps 735 mmHg 96%
    Show more